Torna al catalogo

STARLINK-38062

AttivoComunicazioniSSO
NORAD 100117·PAYLOAD·🇺🇸 United States

Lanciato Jul 21, 2026 da Vandenberg Space Force Base

Loading…

Prossimi Passaggi (prossime 24 ore)

TLE

AggiornatoSource: Space-Track

Epoca: Sep 13, 2026, 23:58 UTC

1 A0117U 26166S   26256.99903716  .00173044  00000-0  11343-2 0  9998
2 A0117  97.2856 275.0835 0001196  79.4838 280.6562 15.75258543  8589

Traccia STARLINK-38062 in tempo reale con AllMySat

Download on the App Store